User: anonymous   Login
Location: Banksville Park
(38.5557°N, 75.1182°W)
Time: 03:16:00
(UTC+00:00)
Language:

SAR-Lupe-1 - Orbit

View from above orbital plane
View from above orbital plane
View from above satellite
View from above satellite

Ground track
Ground track

The orbit data is extracted from the following two-line orbital elements,

1 29658U 06060A   20327.74287188 0.00001400  00000-0  51906-4 0    04
2 29658  98.1628 148.6299 0003262 341.7569  18.2429 15.27643805    00
Epoch (UTC): 22 November 2020 17:49:44
Eccentricity: 0.0003262
inclination: 98.1628°
perigee height: 480 km
apogee height: 485 km
right ascension of ascending node: 148.6299°
argument of perigee: 341.7569°
revolutions per day: 15.27643805
mean anomaly at epoch: 18.2429°
orbit number at epoch: 0

The dashed part of the orbit path shows where the satellite is in the earth's shadow,  

DLR